小惑星2010 PO58

2010 PO58

English version
Home page
Updated on March 6, 2011

---------------------------------------------------------------------

・ プロフィール

発見日 2010年8月5日
発見光度 21等
発見者 Wide Field Infrared Survey Explorer (NASA)

・ 軌道要素

The following orbital elements are taken from MPO181513

Epoch 2011 Feb. 8.0 TT = JDT 2455600.5                  MPC
M  23.80075              (2000.0)            P               Q
n   0.03775056     Peri.   28.17638     +0.91468801     -0.33672017
a   8.8007662      Node    15.13993     -0.16581561     -0.81703084
e   0.6593538      Incl.  121.14591     +0.36857975     +0.46805997
P  26.1            H   14.5           G   0.15           U   8
From 23 observations 2010 Aug. 5-12, mean residual 0".82.

・ 光度変化

        H = 14.5  G = 0.15

---------------------------------------------------------------------

軌道要素はMPCのEphemerides and Orbital Elementsに掲載されたものです。
光度グラフはComet for Windowsで作成したものです。

---------------------------------------------------------------------

Copyright(C) Seiichi Yoshida (comet@aerith.net). All rights reserved.